[[{"header":{"parameterUnit":"m.s-1","parameterCategory":1,"la1":30.2992,"la2":30.254,"lo1":-89.0895,"lo2":-89.0443,"dy":0.0025,"dx":0.0025,"nx":19,"ny":19,"refTime":"2026-03-13T03:00:00:Z","depth":0,"parameterNumber":2,"parameterNumberName":"U-component_of_WINDS"},"data":[0,0,0,-3.8237,-3.8241,-3.841,-3.8411,-3.8666,-3.8669,0,0,0,0,0,0,0,0,0,0,0,-3.8212,-3.8215,-3.8237,-3.8242,-3.841,-3.8411,-3.8666,-3.8669,0,0,0,0,0,0,0,0,0,0,0,-3.8211,-3.8214,-3.8217,-3.8243,-3.841,-3.8411,-3.8665,-3.8524,0,0,0,0,0,0,0,0,0,0,-3.8353,-3.8354,-3.8213,-3.8217,-3.8244,-3.841,-3.8411,-3.8516,-3.8533,-3.8607,0,-3.8681,0,-3.8679,-3.8689,-3.869,0,0,0,-3.8223,-3.8341,-3.8364,-3.8218,-3.8246,-3.841,-3.8329,-3.8525,-3.8543,-3.8629,-3.8684,-3.8692,-3.8683,-3.8691,-3.8692,-3.9184,-3.9187,0,0,-3.8214,-3.8256,-3.8351,-3.8377,-3.8354,-3.8324,-3.8335,-3.8535,-3.8598,-3.8685,-3.8698,-3.8688,-3.8693,-3.8695,-3.9181,-3.9185,0,0,0,-3.82,-3.8251,-3.8267,-3.8368,-3.8395,-3.8329,-3.8342,-3.8589,-3.8591,-3.87,-3.8691,-3.8694,-3.8698,-3.9178,-3.9183,-3.9381,0,0,0,-3.8193,-3.8242,-3.8264,-3.8292,-3.8392,-3.8494,-3.8392,-3.8577,-3.8598,-3.8689,-3.8694,-3.8701,-3.9174,-3.918,-3.9367,-3.9468,0,0,0,-3.8193,-3.8241,-3.8274,-3.8294,-3.8368,-3.849,-3.8503,-3.8581,-3.8594,-3.869,-3.8702,-3.9172,-3.9179,-3.9356,-3.9449,-3.961,0,0,0,-3.8204,-3.8449,-3.8278,-3.8547,-3.8367,-3.8611,-3.8501,-3.8681,-3.8787,-3.8696,-3.9175,-3.9182,-3.9352,-3.9437,-3.9598,-3.9754,-3.9823,0,0,-3.8536,-3.849,-3.8645,-3.8497,-3.8783,-3.8582,-3.8896,-3.8953,-3.8924,-3.9099,-3.911,-3.9372,-3.9447,-3.9607,-4.0191,-4.0246,0,0,0,-3.8764,-3.8876,-3.8942,-3.9045,-3.9094,-3.9144,-3.9148,-3.9169,-3.9315,-3.9023,-3.9471,-3.9515,-3.9607,-3.968,-3.9727,-3.9803,-3.9217,-3.9216,-3.9216,-3.9296,-3.9244,-3.9496,-3.9465,-3.9565,-3.9566,-3.9643,-3.967,-3.9589,-3.9696,-3.9749,-4.0109,-4.0196,-4.0231,-4.0311,-3.9826,-3.9826,-3.9827,-3.9828,-3.9778,-3.9928,-3.9812,-4.0016,-3.9959,-4.0129,-4.0138,-4.0075,-4.0224,-4.0066,-4.0144,-3.9978,-4.0293,-4.036,-3.9842,-3.984,-3.9838,-3.9836,-3.9835,-4.0122,-4.0185,-4.0205,-4.0346,-4.0461,-4.0419,-4.0568,-4.051,-4.0457,-4.0534,-4.0583,-4.058,-4.057,-4.0561,-4.0563,-4.0564,-4.0565,-4.0566,-4.0567,-4.0471,-4.0487,-4.062,-4.0691,-4.0748,-4.0816,-4.0817,-4.0871,-4.0917,-4.0863,-4.0863,-4.0772,-4.0333,-4.0224,-4.0586,-4.0582,-4.058,-4.0578,-4.0577,-4.0982,-4.0857,-4.1062,-4.1119,-4.1196,-4.1313,-4.1236,-4.1352,-4.1388,-4.1464,-4.1354,-4.1038,-4.0988,-4.095,-4.086,-4.1364,-4.1364,-4.1364,-4.1364,-4.1273,-4.1241,-4.1436,-4.1531,-4.1617,-4.1568,-4.18,-4.1803,-4.1786,-4.1805,-4.1723,-4.1598,-4.1562,-4.1532,-4.1482,-4.1397,-4.2027,-4.2027,-4.2028,-4.1584,-4.1557,-4.1767,-4.1748,-4.1803,-4.1851,-4.2067,-4.2181,-4.2135,-4.2053,-4.1818,-4.179,-4.1588,-4.1524,-4.1441,-4.1364,-4.1207,0,0]},{"header":{"parameterUnit":"m.s-1","parameterCategory":1,"la1":30.2992,"la2":30.254,"lo1":-89.0895,"lo2":-89.0443,"dy":0.0025,"dx":0.0025,"nx":19,"ny":19,"refTime":"2026-03-13T03:00:00:Z","depth":0,"parameterNumber":3,"parameterNumberName":"V-component_of_WINDS"},"data":[0,0,0,-3.2334,-3.2337,-3.2466,-3.2466,-3.2635,-3.2636,0,0,0,0,0,0,0,0,0,0,0,-3.23,-3.2302,-3.2334,-3.2337,-3.2466,-3.2466,-3.2635,-3.2636,0,0,0,0,0,0,0,0,0,0,0,-3.23,-3.2301,-3.2303,-3.2337,-3.2465,-3.2466,-3.2634,-3.2535,0,0,0,0,0,0,0,0,0,0,-3.2409,-3.2384,-3.2301,-3.2303,-3.2338,-3.2465,-3.2466,-3.253,-3.2541,-3.2579,0,-3.2616,0,-3.2629,-3.2648,-3.2649,0,0,0,-3.2333,-3.2374,-3.2405,-3.2303,-3.2339,-3.2465,-3.2406,-3.2536,-3.2549,-3.2594,-3.2618,-3.2624,-3.2632,-3.2649,-3.265,-3.2883,-3.2884,0,0,-3.2326,-3.2326,-3.2396,-3.2413,-3.2396,-3.2402,-3.2411,-3.2544,-3.257,-3.2619,-3.2628,-3.2634,-3.2651,-3.2652,-3.2882,-3.2883,0,0,0,-3.2308,-3.2321,-3.2348,-3.2406,-3.2429,-3.2406,-3.2416,-3.2564,-3.2573,-3.263,-3.2636,-3.2652,-3.2654,-3.288,-3.2882,-3.2944,0,0,0,-3.2304,-3.2311,-3.2345,-3.2346,-3.2427,-3.2499,-3.2433,-3.2563,-3.2578,-3.2636,-3.2652,-3.2655,-3.2879,-3.2881,-3.2939,-3.2973,0,0,0,-3.229,-3.2309,-3.2329,-3.2346,-3.2402,-3.2497,-3.2513,-3.2567,-3.2583,-3.2649,-3.2656,-3.2878,-3.2881,-3.2935,-3.2966,-3.3033,0,0,0,-3.2276,-3.2384,-3.233,-3.2453,-3.2401,-3.2535,-3.2512,-3.2612,-3.2676,-3.2652,-3.2879,-3.2882,-3.2934,-3.2962,-3.3028,-3.3088,-3.3114,0,0,-3.2411,-3.24,-3.2472,-3.2428,-3.2571,-3.2515,-3.2667,-3.2725,-3.2731,-3.2831,-3.2837,-3.2941,-3.2966,-3.3032,-3.3257,-3.3278,0,0,0,-3.2514,-3.2566,-3.2604,-3.2665,-3.2713,-3.2756,-3.2791,-3.2812,-3.2897,-3.2784,-3.2984,-3.2998,-3.3037,-3.3066,-3.3083,-3.3115,-3.2896,-3.2895,-3.2895,-3.2706,-3.2708,-3.2826,-3.2843,-3.2902,-3.2937,-3.2984,-3.3018,-3.3003,-3.305,-3.308,-3.3216,-3.325,-3.3263,-3.3297,-3.3112,-3.3113,-3.3113,-3.3113,-3.2904,-3.2976,-3.2952,-3.3058,-3.3058,-3.3147,-3.3183,-3.3168,-3.3249,-3.3195,-3.3229,-3.3169,-3.3285,-3.3314,-3.3118,-3.3117,-3.3116,-3.3116,-3.3116,-3.3029,-3.3063,-3.3088,-3.3175,-3.3241,-3.3253,-3.3331,-3.3329,-3.3327,-3.3361,-3.339,-3.3389,-3.3387,-3.3375,-3.3376,-3.3376,-3.3377,-3.3377,-3.3377,-3.3148,-3.3174,-3.3241,-3.3298,-3.3336,-3.3385,-3.3419,-3.3455,-3.3494,-3.3486,-3.3486,-3.3464,-3.3297,-3.3254,-3.3385,-3.3383,-3.3382,-3.3382,-3.3381,-3.3347,-3.3301,-3.3404,-3.3442,-3.3508,-3.3572,-3.3568,-3.3641,-3.3671,-3.3709,-3.368,-3.3556,-3.3544,-3.353,-3.3495,-3.368,-3.368,-3.368,-3.368,-3.3451,-3.3445,-3.3548,-3.3608,-3.3666,-3.3672,-3.3785,-3.3811,-3.3831,-3.3849,-3.3822,-3.3774,-3.376,-3.3756,-3.3738,-3.3704,-3.3939,-3.3939,-3.3939,-3.3572,-3.357,-3.3669,-3.3688,-3.3739,-3.3782,-3.3888,-3.3955,-3.3968,-3.395,-3.3862,-3.3851,-3.3775,-3.375,-3.373,-3.3701,-3.364,0,0]}]]